Location: Gouy
(50.0008°N, 3.2556°E)
Time: 19:42:15
(UTC+00:00)

Cosmos 1733 Rocket - Pass Details

Date: 23 May 2024
Orbit: 600 x 624 km, 82.5° (Epoch: 14 June)

Event Time Altitude Azimuth Distance (km) Brightness Sun altitude
Rises 00:23:58 0° 349° (N) 2,866 7.8 -18.8°
Reaches altitude 10° 00:26:11 10° 349° (NNW) 1,960 6.7 -18.7°
Maximum altitude 00:30:32 84° 261° (W) 616 2.9 -18.6°
Enters shadow 00:31:59 41° 178° (S) 878 3.3 -18.6°
